Stations météo

réclame
Mon MeteoGroup
Dieppe, France (7040): Température de l'air & dewpoint: 17.09.2017 21:00:00 - 23.09.2017 21:00:00 (CEST)Dieppe, France (7040): Température de l'air 5cm: 17.09.2017 21:00:00 - 23.09.2017 21:00:00 (CEST)Dieppe, France (7040): Vitesse du vent & gusts: 17.09.2017 21:00:00 - 23.09.2017 21:00:00 (CEST)Dieppe, France (7040): Direction du vent: 17.09.2017 21:00:00 - 23.09.2017 21:00:00 (CEST)Dieppe, France (7040): reduced air pressure: 17.09.2017 21:00:00 - 23.09.2017 21:00:00 (CEST)Dieppe, France (7040): visibility: 17.09.2017 21:00:00 - 23.09.2017 21:00:00 (CEST)Dieppe, France (7040): Quantités de précipitations: 17.09.2017 21:00:00 - 23.09.2017 21:00:00 (CEST)
Date & Time tt [°C] td [°C] tt 5cm [°C] ff [km/h] ff [knt] fx [km/h] fx [knt] dd ppp [hPa] vv [km] rr [mm]
23.09.2017 21:00:00 15,6 9,5 14,6 6 4 16 8 SSE 1021,0 - 0,0
23.09.2017 20:00:00 16,1 10,4 14,4 7 4 21 11 E 1020,7 16 0,0
23.09.2017 19:00:00 16,7 12,4 17,3 14 8 23 12 ENE 1020,7 - 0,0
23.09.2017 18:00:00 17,4 11,7 17,9 17 9 26 14 NE 1020,8 - 0,0
23.09.2017 17:00:00 16,5 9,9 17,9 19 10 27 14 NE 1021,2 - 0,0
23.09.2017 16:00:00 16,8 9,5 18,8 16 8 23 12 NE 1022,0 - 0,0
23.09.2017 15:00:00 17,1 10,5 20,7 15 8 22 12 NE 1022,3 - 0,0
23.09.2017 14:00:00 17,5 9,4 21,5 6 4 16 9 NNE 1022,9 12 0,0
23.09.2017 13:00:00 18,3 8,5 20,6 4 2 12 7 S 1023,2 - 0,0
23.09.2017 12:00:00 17,0 9,4 19,8 7 4 14 7 SSE 1023,5 - 0,0
23.09.2017 11:00:00 14,3 9,9 13,1 9 5 17 9 S 1023,8 - 0,0
23.09.2017 10:00:00 10,6 8,4 10,3 11 6 18 10 S 1023,6 - 0,0
23.09.2017 09:00:00 8,1 7,0 7,0 12 7 20 11 SSE 1023,4 - 0,0
23.09.2017 08:00:00 7,2 6,5 7,0 14 8 21 12 S 1023,4 - 0,0
23.09.2017 07:00:00 7,3 6,6 6,9 16 8 22 12 S 1023,4 - 0,0
23.09.2017 06:00:00 7,6 6,8 7,2 14 8 19 10 S 1023,1 - 0,0
23.09.2017 05:00:00 7,8 7,0 7,4 14 8 20 11 S 1023,3 - 0,0
23.09.2017 04:00:00 7,9 7,1 7,7 14 8 19 10 S 1023,7 - 0,0
23.09.2017 03:00:00 8,2 7,4 7,8 13 7 19 10 S 1024,0 - 0,0
23.09.2017 02:00:00 8,6 7,7 8,2 14 8 19 10 S 1024,0 - 0,0
23.09.2017 01:00:00 9,1 8,0 8,6 14 8 18 10 S 1024,1 - 0,0
23.09.2017 00:00:00 9,6 8,2 9,1 12 6 16 9 S 1024,1 - 0,0
22.09.2017 23:00:00 10,4 8,5 9,7 11 6 14 8 S 1024,1 - 0,0
22.09.2017 22:00:00 11,6 8,6 10,7 8 5 11 6 S 1024,1 - 0,0
22.09.2017 21:00:00 13,5 8,5 11,8 4 2 6 4 S 1023,7 - 0,0
22.09.2017 20:00:00 14,6 8,3 13,1 6 3 13 7 NW 1023,4 - 0,0
22.09.2017 19:00:00 16,3 8,5 16,8 9 5 19 10 NW 1023,3 - 0,0
22.09.2017 18:00:00 16,9 9,3 17,9 9 5 17 9 WNW 1023,1 - 0,0
22.09.2017 17:00:00 17,4 10,3 18,7 9 5 17 9 WNW 1022,9 15 0,0
22.09.2017 16:00:00 17,6 10,5 20,4 9 5 16 9 WNW 1022,9 - 0,0
22.09.2017 15:00:00 17,5 10,8 17,4 11 6 18 10 NW 1022,9 - 0,0
22.09.2017 14:00:00 17,2 11,2 17,4 12 6 18 10 NW 1022,9 15 0,0
22.09.2017 13:00:00 15,9 11,3 17,0 14 7 21 11 NW 1022,6 - 0,0
22.09.2017 12:00:00 16,2 11,1 16,6 14 8 21 11 NW 1022,4 - 0,0
22.09.2017 11:00:00 15,7 10,7 16,7 9 5 14 8 WNW 1022,0 12 0,0
22.09.2017 10:00:00 14,7 10,3 15,2 5 3 11 6 S 1021,7 - 0,0
22.09.2017 09:00:00 13,5 10,1 12,1 8 4 11 6 S 1021,3 - 0,0
22.09.2017 08:00:00 13,6 10,0 12,3 6 3 21 12 WSW 1020,9 12 0,0
22.09.2017 07:00:00 14,9 9,7 14,3 13 7 24 13 WNW 1020,3 - 0,0
22.09.2017 06:00:00 15,1 10,3 14,4 19 11 29 16 NW 1020,0 - 0,0
22.09.2017 05:00:00 15,4 10,8 14,7 23 12 30 16 NW 1020,0 - 0,0
22.09.2017 04:00:00 14,7 12,9 13,4 13 7 25 13 WNW 1019,7 - 0,0
22.09.2017 03:00:00 13,8 12,2 13,0 8 5 13 7 S 1019,9 - 0,0
22.09.2017 02:00:00 13,6 12,5 12,9 5 3 28 15 SSW 1019,8 - 0,4
22.09.2017 01:00:00 14,6 13,3 13,8 6 4 11 6 S 1019,6 - 0,0
22.09.2017 00:00:00 14,4 12,9 13,6 4 2 32 17 NNW 1019,1 - 0,0
21.09.2017 23:00:00 15,2 13,2 14,1 16 9 29 15 W 1019,1 - 0,2
21.09.2017 22:00:00 16,1 13,9 15,8 17 9 33 18 WNW 1018,9 - 0,0
21.09.2017 21:00:00 16,4 14,2 16,0 14 8 23 12 W 1018,5 - 0,0
21.09.2017 20:00:00 16,8 14,4 16,1 11 6 35 19 W 1017,9 12 0,0
21.09.2017 19:00:00 19,2 10,7 18,9 8 4 23 12 S 1017,1 - 0,0
21.09.2017 18:00:00 19,8 10,5 19,8 11 6 25 14 SSW 1016,8 - 0,0
21.09.2017 17:00:00 20,6 11,0 20,3 11 6 30 16 S 1016,6 16 0,0
21.09.2017 16:00:00 20,0 10,1 20,0 17 9 35 19 S 1016,5 - 0,0
21.09.2017 15:00:00 19,5 9,1 20,1 20 11 39 21 S 1016,7 - 0,0
21.09.2017 14:00:00 18,9 8,2 19,9 20 11 40 22 S 1017,0 - 0,0
21.09.2017 13:00:00 19,0 9,2 19,9 17 9 34 18 S 1017,3 - 0,0
21.09.2017 12:00:00 17,3 9,5 18,1 20 11 40 22 S 1017,5 - 0,0
21.09.2017 11:00:00 15,3 8,8 14,7 17 9 31 17 S 1017,8 - 0,0
21.09.2017 10:00:00 13,0 8,5 13,0 13 7 29 15 SSE 1018,0 - 0,0
21.09.2017 09:00:00 11,7 8,0 10,8 16 8 32 17 SSE 1017,7 - 0,0
21.09.2017 08:00:00 11,1 8,0 10,6 16 8 28 15 SSE 1017,7 14 0,0
21.09.2017 07:00:00 11,2 8,1 10,7 15 8 30 16 SSE 1017,7 - 0,0
21.09.2017 06:00:00 11,6 8,4 11,2 16 8 30 16 SSE 1017,6 - 0,0
21.09.2017 05:00:00 11,9 8,7 11,4 15 8 27 15 SSE 1017,9 - 0,0
21.09.2017 04:00:00 11,9 9,1 11,3 13 7 24 13 SSE 1018,4 - 0,0
21.09.2017 03:00:00 11,9 9,5 11,3 12 6 19 10 SSE 1018,8 - 0,0
21.09.2017 02:00:00 12,3 9,7 11,7 10 5 19 11 SSE 1019,0 - 0,0
21.09.2017 01:00:00 12,7 9,9 12,1 12 7 18 10 SSE 1019,1 - 0,0
21.09.2017 00:00:00 12,8 10,2 12,1 11 6 19 10 S 1019,0 - 0,0
20.09.2017 23:00:00 13,7 10,1 13,1 11 6 19 10 S 1018,9 - 0,0
20.09.2017 22:00:00 14,6 10,2 13,9 10 5 18 10 SSE 1019,1 - 0,0
20.09.2017 21:00:00 15,6 10,4 14,9 9 5 16 9 S 1019,4 - 0,0
20.09.2017 20:00:00 16,6 10,4 16,1 8 4 14 7 S 1019,4 - 0,0
20.09.2017 19:00:00 18,0 9,9 18,2 8 5 18 10 S 1019,4 - 0,0
20.09.2017 18:00:00 17,9 12,3 17,7 6 4 14 8 W 1019,8 - 0,0
20.09.2017 17:00:00 18,7 12,2 18,2 8 4 26 14 W 1020,3 - 0,0
20.09.2017 16:00:00 18,6 10,2 18,1 15 8 28 15 SW 1020,6 - 0,0
20.09.2017 15:00:00 18,2 10,8 18,1 14 8 30 16 SW 1020,8 - 0,0
20.09.2017 14:00:00 16,5 10,8 17,2 13 7 28 15 SSW 1021,4 - 0,0
20.09.2017 13:00:00 16,6 10,7 15,9 16 8 25 14 SSW 1021,6 - 0,0
20.09.2017 12:00:00 14,5 10,3 13,2 15 8 25 13 S 1021,9 - 0,0
20.09.2017 11:00:00 12,5 9,7 11,9 10 5 21 12 S 1022,2 - 0,0
20.09.2017 10:00:00 11,5 9,1 10,9 14 7 24 13 S 1022,2 - 0,0
20.09.2017 09:00:00 10,7 8,5 10,2 16 9 27 14 S 1022,0 - 0,0
20.09.2017 08:00:00 10,3 8,2 9,9 16 9 25 13 S 1021,8 - 0,0
20.09.2017 07:00:00 10,3 8,4 9,8 16 9 23 12 S 1021,9 - 0,0
20.09.2017 06:00:00 10,3 8,7 9,8 15 8 22 12 SSE 1022,0 - 0,0
20.09.2017 05:00:00 10,4 8,7 9,9 14 8 23 12 SSE 1022,2 - 0,0
20.09.2017 04:00:00 10,6 8,5 9,9 15 8 23 12 SSE 1022,4 - 0,0
20.09.2017 03:00:00 10,3 8,4 9,9 14 8 20 11 S 1022,7 - 0,0
20.09.2017 02:00:00 10,4 8,5 9,9 13 7 19 11 S 1022,9 - 0,0
20.09.2017 01:00:00 10,6 8,7 9,9 11 6 18 10 S 1023,3 - 0,0
20.09.2017 00:00:00 10,4 8,7 9,9 12 7 17 9 S 1023,3 - 0,0
19.09.2017 23:00:00 11,0 8,7 10,4 11 6 15 8 S 1023,2 - 0,0
19.09.2017 22:00:00 12,2 8,7 11,4 9 5 21 11 S 1023,4 - 0,0
19.09.2017 21:00:00 13,9 8,1 13,1 14 8 24 13 WNW 1023,2 - 0,0
19.09.2017 20:00:00 13,7 8,3 13,2 11 6 21 11 W 1022,8 18 0,0
19.09.2017 19:00:00 14,1 8,7 14,0 10 5 19 10 W 1022,8 - 0,0
19.09.2017 18:00:00 15,5 8,7 15,4 10 5 23 12 NW 1022,7 - 0,0
19.09.2017 17:00:00 16,0 9,0 16,2 14 7 23 12 WNW 1022,5 - 0,0
19.09.2017 16:00:00 16,1 9,3 17,2 12 6 19 10 WNW 1022,6 18 0,0
19.09.2017 15:00:00 16,9 10,3 19,1 8 4 16 9 NW 1022,3 - 0,0
19.09.2017 14:00:00 16,3 9,5 17,8 10 5 16 9 NW 1022,3 - 0,0
19.09.2017 13:00:00 15,0 9,6 14,0 11 6 24 13 NNW 1022,2 - 0,0
19.09.2017 12:00:00 13,5 9,2 13,6 18 10 30 16 N 1022,0 - 0,0
19.09.2017 11:00:00 13,5 9,2 13,3 19 11 28 15 N 1021,2 - 0,0
19.09.2017 10:00:00 13,6 8,6 12,7 17 9 29 16 N 1020,6 - 0,0
19.09.2017 09:00:00 13,0 9,3 10,2 20 11 30 16 N 1020,4 - 0,0
19.09.2017 08:00:00 11,0 9,3 9,9 10 5 41 22 ENE 1020,1 12 0,4
19.09.2017 07:00:00 12,0 9,9 10,1 20 11 44 24 NNE 1019,4 - 2,2
19.09.2017 06:00:00 11,6 9,7 10,4 29 16 40 22 N 1018,9 - 1,8
19.09.2017 05:00:00 12,0 10,2 10,3 22 12 52 28 NNW 1018,5 - 4,1
19.09.2017 04:00:00 11,5 9,4 10,4 9 5 27 14 SSW 1018,7 - 1,0
19.09.2017 03:00:00 12,6 9,6 10,6 16 8 41 22 WNW 1019,1 - 0,6
19.09.2017 02:00:00 12,7 9,9 11,1 27 14 45 24 WNW 1019,0 - 0,6
19.09.2017 01:00:00 11,6 9,5 10,8 10 5 20 11 SSW 1019,3 - 0,0
19.09.2017 00:00:00 11,6 9,2 11,1 11 6 18 10 S 1019,2 - 0,0
18.09.2017 23:00:00 12,4 9,6 10,5 7 4 12 7 SSW 1019,3 - 0,0
18.09.2017 22:00:00 11,8 9,4 10,1 8 4 13 7 S 1019,2 - 0,2
18.09.2017 21:00:00 12,4 8,3 10,1 14 7 54 29 N 1019,0 - 1,6
18.09.2017 20:00:00 15,0 10,0 14,4 22 12 38 21 NW 1018,1 16 0,0
18.09.2017 19:00:00 14,9 9,3 14,0 25 14 40 22 NW 1017,8 - 0,0
18.09.2017 18:00:00 15,0 10,4 13,8 22 12 36 19 NW 1017,7 - 0,0
18.09.2017 17:00:00 15,7 9,8 12,6 21 11 36 20 NW 1017,7 14 0,2
18.09.2017 16:00:00 14,3 10,1 12,5 14 8 35 19 N 1017,6 - 1,4
18.09.2017 15:00:00 16,2 10,3 17,4 21 11 29 16 NW 1017,5 - 0,0
18.09.2017 14:00:00 16,4 10,3 17,4 20 11 29 16 NW 1017,2 14 0,0
18.09.2017 13:00:00 15,8 10,1 15,6 13 7 28 15 NW 1017,3 - 0,0
18.09.2017 12:00:00 14,5 9,9 14,8 20 11 32 18 NW 1017,0 - 0,0
18.09.2017 11:00:00 13,6 10,2 11,9 23 12 33 18 NNW 1016,7 12 0,0
18.09.2017 10:00:00 12,2 10,9 10,0 14 8 26 14 SW 1016,3 - 0,8
18.09.2017 09:00:00 10,5 9,4 9,8 13 7 22 12 S 1015,9 - 0,0
18.09.2017 08:00:00 10,3 9,2 9,8 12 6 16 9 S 1015,7 - 0,0
18.09.2017 07:00:00 10,4 9,5 9,8 10 5 16 9 S 1015,6 - 0,0
18.09.2017 06:00:00 10,6 9,5 9,8 10 5 19 10 S 1015,4 - 0,0
18.09.2017 05:00:00 10,5 9,4 9,8 13 7 19 11 S 1015,3 - 0,0
18.09.2017 04:00:00 10,7 9,8 9,7 14 8 22 12 S 1015,2 - 0,2
18.09.2017 03:00:00 11,1 9,8 10,4 14 8 23 13 SSE 1015,4 - 0,2
18.09.2017 02:00:00 11,1 9,5 10,0 10 5 23 12 S 1015,5 - 0,0
18.09.2017 01:00:00 11,0 9,6 10,1 11 6 18 10 S 1015,5 - 1,6
18.09.2017 00:00:00 11,1 8,8 10,5 9 5 13 7 SSE 1015,7 - 0,0
17.09.2017 23:00:00 12,4 9,0 11,4 7 4 22 12 WSW 1015,7 - 0,0
17.09.2017 22:00:00 13,6 9,4 13,0 11 6 21 12 WNW 1015,4 - 0,0
17.09.2017 21:00:00 13,6 9,0 12,9 13 7 21 11 NW 1015,0 - 0,0

tt = Température de l'air
td = dewpoint
tt 5cm = Température de l'air 5cm
ff = Vitesse du vent
fx = gusts
dd = Direction du vent
ppp = reduced air pressure
vv = visibility
rr = Quantités de précipitations

stations d'obs. à proximité